| time (UTC) | temp F | wind direction | speed MPH | gust MPH | rain 1hr in | rain 24hr in | rain mn in | humidity % | barometer mb |
| 20260508052029 | 54 | 240 | 3.0 | 12.0 | 0.00 | 0.01 | 0.00 | 80 | 1009.9 |
| 20260508051526 | 54 | 272 | 3.0 | 7.0 | 0.00 | 0.01 | 0.00 | 80 | 1010.0 |
| 20260508051030 | 53 | 242 | 2.0 | 7.0 | 0.00 | 0.01 | 0.00 | 81 | 1010.0 |
| 20260508050524 | 53 | 217 | 2.0 | 7.0 | 0.00 | 0.01 | 0.00 | 81 | 1010.0 |
| 20260508050027 | 53 | 246 | 2.0 | 4.0 | 0.00 | 0.01 | 0.00 | 81 | 1010.0 |
| 20260508045522 | 53 | 279 | 2.0 | 6.0 | 0.00 | 0.01 | 0.00 | 81 | 1010.0 |
| 20260508045021 | 53 | 234 | 2.0 | 6.0 | 0.00 | 0.01 | 0.00 | 81 | 1010.0 |
| 20260508044522 | 53 | 244 | 2.0 | 8.0 | 0.00 | 0.01 | 0.00 | 80 | 1009.9 |
| 20260508044020 | 53 | 232 | 2.0 | 8.0 | 0.00 | 0.01 | 0.00 | 80 | 1009.9 |
| 20260508043520 | 53 | 261 | 2.0 | 7.0 | 0.00 | 0.01 | 0.00 | 79 | 1009.9 |
| 20260508043020 | 53 | 221 | 2.0 | 7.0 | 0.00 | 0.01 | 0.00 | 79 | 1009.9 |
| 20260508042520 | 53 | 246 | 2.0 | 8.0 | 0.00 | 0.01 | 0.00 | 79 | 1009.9 |
| 20260508042019 | 53 | 253 | 2.0 | 8.0 | 0.00 | 0.01 | 0.00 | 78 | 1009.9 |
| 20260508041522 | 53 | 257 | 2.0 | 7.0 | 0.00 | 0.01 | 0.00 | 78 | 1009.9 |
| 20260508041018 | 53 | 270 | 1.0 | 10.0 | 0.00 | 0.01 | 0.00 | 78 | 1009.8 |
| 20260508040518 | 53 | 186 | 2.0 | 10.0 | 0.00 | 0.01 | 0.00 | 78 | 1009.8 |
| 20260508040017 | 53 | 238 | 2.0 | 8.0 | 0.00 | 0.01 | 0.00 | 78 | 1009.8 |
| 20260508035516 | 53 | 250 | 2.0 | 9.0 | 0.00 | 0.01 | 0.01 | 78 | 1009.8 |
| 20260508035016 | 53 | 242 | 2.0 | 9.0 | 0.00 | 0.01 | 0.01 | 78 | 1009.8 |
| 20260508034517 | 53 | 229 | 2.0 | 8.0 | 0.00 | 0.01 | 0.01 | 78 | 1009.7 |
| 20260508034016 | 53 | 287 | 3.0 | 8.0 | 0.00 | 0.01 | 0.01 | 78 | 1009.8 |
| 20260508033518 | 53 | 261 | 3.0 | 8.0 | 0.00 | 0.01 | 0.01 | 78 | 1009.8 |
| 20260508033015 | 53 | 236 | 3.0 | 8.0 | 0.00 | 0.01 | 0.01 | 78 | 1009.8 |
| 20260508032515 | 53 | 296 | 3.0 | 9.0 | 0.00 | 0.01 | 0.01 | 79 | 1009.8 |
| 20260508032015 | 53 | 211 | 3.0 | 9.0 | 0.00 | 0.01 | 0.01 | 80 | 1009.8 |
| 20260508031515 | 53 | 244 | 3.0 | 11.0 | 0.00 | 0.01 | 0.01 | 81 | 1009.8 |
| 20260508031014 | 52 | 188 | 2.0 | 10.0 | 0.00 | 0.01 | 0.01 | 82 | 1009.8 |
| 20260508030514 | 52 | 244 | 3.0 | 10.0 | 0.00 | 0.01 | 0.01 | 84 | 1009.9 |
| 20260508030014 | 51 | 228 | 3.0 | 8.0 | 0.00 | 0.01 | 0.01 | 88 | 1009.9 |
| 20260508025514 | 49 | 247 | 2.0 | 7.0 | 0.00 | 0.01 | 0.01 | 88 | 1009.8 |
| 20260508025017 | 49 | 228 | 1.0 | 3.0 | 0.00 | 0.01 | 0.01 | 87 | 1009.9 |
| 20260508024531 | 49 | 219 | 0.0 | 1.0 | 0.00 | 0.01 | 0.01 | 86 | 1009.9 |
| 20260508024011 | 49 | 219 | 0.0 | 1.0 | 0.00 | 0.01 | 0.01 | 86 | 1010.0 |
| 20260508023511 | 49 | 219 | 0.0 | 3.0 | 0.00 | 0.01 | 0.01 | 86 | 1009.9 |
| 20260508023010 | 49 | 219 | 1.0 | 3.0 | 0.00 | 0.01 | 0.01 | 86 | 1009.8 |
| 20260508022511 | 49 | 211 | 1.0 | 3.0 | 0.00 | 0.01 | 0.01 | 86 | 1009.8 |
| 20260508022009 | 50 | 205 | 1.0 | 3.0 | 0.00 | 0.01 | 0.01 | 85 | 1009.9 |
| 20260508021509 | 50 | 209 | 1.0 | 2.0 | 0.00 | 0.01 | 0.01 | 85 | 1009.9 |
| 20260508021007 | 50 | 209 | 0.0 | 3.0 | 0.00 | 0.01 | 0.01 | 85 | 1009.9 |
| 20260508020506 | 50 | 209 | 1.0 | 4.0 | 0.00 | 0.01 | 0.01 | 85 | 1009.8 |
| 20260508020006 | 50 | 202 | 2.0 | 4.0 | 0.00 | 0.01 | 0.01 | 85 | 1009.7 |
| 20260508015508 | 50 | 194 | 2.0 | 3.0 | 0.00 | 0.01 | 0.01 | 84 | 1009.7 |
| 20260508015005 | 50 | 212 | 1.0 | 2.0 | 0.00 | 0.01 | 0.01 | 83 | 1009.7 |
| 20260508014505 | 51 | 212 | 0.0 | 2.0 | 0.00 | 0.01 | 0.01 | 82 | 1009.7 |
| 20260508014004 | 51 | 212 | 0.0 | 3.0 | 0.00 | 0.01 | 0.01 | 82 | 1009.6 |
| 20260508013502 | 51 | 213 | 1.0 | 3.0 | 0.00 | 0.01 | 0.01 | 82 | 1009.6 |
| 20260508013002 | 51 | 217 | 1.0 | 3.0 | 0.00 | 0.01 | 0.01 | 81 | 1009.6 |
| 20260508012501 | 52 | 207 | 1.0 | 3.0 | 0.00 | 0.01 | 0.01 | 80 | 1009.5 |
| 20260508012001 | 52 | 227 | 1.0 | 3.0 | 0.00 | 0.01 | 0.01 | 79 | 1009.5 |
| 20260508011501 | 52 | 216 | 0.0 | 5.0 | 0.00 | 0.01 | 0.01 | 79 | 1009.4 |
| 20260508011100 | 52 | 216 | 1.0 | 5.0 | 0.00 | 0.01 | 0.01 | 79 | 1009.3 |
| 20260508010600 | 52 | 213 | 1.0 | 4.0 | 0.00 | 0.01 | 0.01 | 79 | 1009.3 |
| 20260508010059 | 52 | 225 | 2.0 | 4.0 | 0.00 | 0.01 | 0.01 | 78 | 1009.2 |
| 20260508005559 | 53 | 211 | 1.0 | 4.0 | 0.00 | 0.01 | 0.01 | 78 | 1009.1 |
| 20260508005059 | 53 | 236 | 2.0 | 4.0 | 0.00 | 0.01 | 0.01 | 77 | 1009.0 |
| 20260508004602 | 53 | 203 | 2.0 | 5.0 | 0.00 | 0.01 | 0.01 | 76 | 1008.9 |
| 20260508004059 | 53 | 214 | 2.0 | 5.0 | 0.00 | 0.01 | 0.01 | 76 | 1009.0 |
| 20260508003558 | 54 | 229 | 2.0 | 5.0 | 0.00 | 0.01 | 0.01 | 75 | 1009.0 |
| 20260508003101 | 54 | 223 | 1.0 | 5.0 | 0.00 | 0.01 | 0.01 | 75 | 1009.0 |
| 20260508002558 | 54 | 236 | 2.0 | 7.0 | 0.00 | 0.01 | 0.01 | 74 | 1008.9 |
| 20260508002058 | 54 | 229 | 3.0 | 8.0 | 0.00 | 0.01 | 0.01 | 74 | 1008.8 |
| 20260508001559 | 54 | 213 | 2.0 | 8.0 | 0.00 | 0.01 | 0.01 | 74 | 1008.7 |
| 20260508001057 | 54 | 217 | 3.0 | 6.0 | 0.00 | 0.01 | 0.01 | 74 | 1008.7 |
| 20260508000558 | 54 | 208 | 2.0 | 5.0 | 0.00 | 0.01 | 0.01 | 75 | 1008.5 |
| 20260508000058 | 55 | 225 | 2.0 | 5.0 | 0.00 | 0.01 | 0.01 | 74 | 1008.5 |
| 20260507235557 | 55 | 243 | 2.0 | 8.0 | 0.00 | 0.01 | 0.01 | 74 | 1008.5 |
| 20260507235057 | 55 | 215 | 4.0 | 8.0 | 0.00 | 0.01 | 0.01 | 74 | 1008.5 |
| 20260507234558 | 55 | 223 | 4.0 | 7.0 | 0.00 | 0.01 | 0.01 | 73 | 1008.7 |
| 20260507234056 | 55 | 217 | 4.0 | 7.0 | 0.00 | 0.01 | 0.01 | 72 | 1008.6 |
| 20260507233556 | 56 | 207 | 3.0 | 11.0 | 0.00 | 0.01 | 0.01 | 72 | 1008.7 |
| 20260507233100 | 56 | 213 | 6.0 | 11.0 | 0.00 | 0.01 | 0.01 | 71 | 1008.5 |
| 20260507232557 | 56 | 212 | 5.0 | 8.0 | 0.00 | 0.01 | 0.01 | 71 | 1008.3 |
| 20260507232058 | 56 | 212 | 5.0 | 11.0 | 0.00 | 0.01 | 0.01 | 70 | 1008.2 |
| 20260507231559 | 56 | 229 | 5.0 | 11.0 | 0.00 | 0.01 | 0.01 | 70 | 1008.2 |
| 20260507231055 | 57 | 207 | 6.0 | 9.0 | 0.00 | 0.01 | 0.01 | 70 | 1008.3 |
| 20260507230557 | 57 | 234 | 5.0 | 10.0 | 0.00 | 0.01 | 0.01 | 69 | 1008.5 |
| 20260507230108 | 57 | 216 | 6.0 | 12.0 | 0.00 | 0.01 | 0.01 | 68 | 1008.4 |
| 20260507225554 | 58 | 238 | 5.0 | 10.0 | 0.00 | 0.01 | 0.01 | 68 | 1008.2 |
| 20260507225155 | 58 | 218 | 5.0 | 10.0 | 0.00 | 0.01 | 0.01 | 65 | 1008.1 |
| 20260507224555 | 58 | 248 | 2.0 | 9.0 | 0.00 | 0.01 | 0.01 | 66 | 1007.9 |
| 20260507224057 | 57 | 216 | 3.0 | 10.0 | 0.00 | 0.01 | 0.01 | 67 | 1007.9 |
| 20260507223553 | 58 | 236 | 5.0 | 10.0 | 0.00 | 0.01 | 0.01 | 67 | 1008.1 |
| 20260507223053 | 58 | 215 | 4.0 | 9.0 | 0.00 | 0.01 | 0.01 | 67 | 1008.2 |
| 20260507222553 | 57 | 217 | 5.0 | 10.0 | 0.00 | 0.01 | 0.01 | 66 | 1008.3 |
| 20260507222053 | 58 | 250 | 6.0 | 10.0 | 0.00 | 0.01 | 0.01 | 66 | 1008.1 |
| 20260507221554 | 57 | 227 | 3.0 | 10.0 | 0.00 | 0.01 | 0.01 | 66 | 1008.1 |
| 20260507221051 | 57 | 224 | 4.0 | 10.0 | 0.00 | 0.01 | 0.01 | 66 | 1008.2 |
| 20260507220552 | 57 | 220 | 5.0 | 9.0 | 0.00 | 0.01 | 0.01 | 67 | 1008.2 |
| 20260507220057 | 57 | 240 | 5.0 | 9.0 | 0.00 | 0.01 | 0.01 | 68 | 1008.6 |
| 20260507215552 | 57 | 218 | 5.0 | 8.0 | 0.00 | 0.01 | 0.01 | 68 | 1008.6 |
| 20260507215051 | 57 | 240 | 4.0 | 8.0 | 0.00 | 0.01 | 0.01 | 68 | 1008.3 |
| 20260507214551 | 57 | 235 | 5.0 | 12.0 | 0.00 | 0.01 | 0.01 | 69 | 1008.5 |
| 20260507214051 | 57 | 217 | 7.0 | 12.0 | 0.00 | 0.01 | 0.01 | 69 | 1008.7 |
| 20260507213553 | 57 | 242 | 7.0 | 11.0 | 0.00 | 0.01 | 0.01 | 69 | 1008.7 |
| 20260507213051 | 57 | 224 | 6.0 | 12.0 | 0.00 | 0.01 | 0.01 | 69 | 1008.6 |
| 20260507212550 | 57 | 223 | 7.0 | 12.0 | 0.00 | 0.01 | 0.01 | 69 | 1008.5 |
| 20260507212052 | 57 | 230 | 6.0 | 11.0 | 0.00 | 0.01 | 0.01 | 68 | 1008.2 |
| 20260507211551 | 57 | 240 | 4.0 | 11.0 | 0.00 | 0.01 | 0.01 | 70 | 1008.1 |
| 20260507211049 | 57 | 191 | 6.0 | 10.0 | 0.00 | 0.01 | 0.01 | 69 | 1008.2 |
| 20260507210552 | 58 | 240 | 5.0 | 10.0 | 0.00 | 0.01 | 0.01 | 69 | 1008.2 |
| 20260507210104 | 58 | 227 | 3.0 | 8.0 | 0.00 | 0.01 | 0.01 | 69 | 1008.2 |
| 20260507205549 | 58 | 239 | 4.0 | 9.0 | 0.00 | 0.01 | 0.01 | 70 | 1008.1 |
| 20260507205048 | 57 | 247 | 5.0 | 9.0 | 0.00 | 0.01 | 0.01 | 70 | 1008.1 |
| 20260507204549 | 58 | 248 | 4.0 | 9.0 | 0.00 | 0.01 | 0.01 | 70 | 1008.1 |
| 20260507204048 | 58 | 273 | 4.0 | 10.0 | 0.00 | 0.01 | 0.01 | 70 | 1008.1 |
| 20260507203548 | 58 | 228 | 5.0 | 10.0 | 0.00 | 0.01 | 0.01 | 68 | 1008.0 |
| 20260507203114 | 58 | 223 | 5.0 | 9.0 | 0.00 | 0.01 | 0.01 | 68 | 1007.8 |
| 20260507202548 | 58 | 220 | 4.0 | 9.0 | 0.00 | 0.01 | 0.01 | 69 | 1008.1 |
| 20260507202054 | 58 | 205 | 4.0 | 9.0 | 0.00 | 0.01 | 0.01 | 69 | 1008.1 |
| 20260507201551 | 57 | 251 | 3.0 | 7.0 | 0.00 | 0.01 | 0.01 | 69 | 1008.0 |
| 20260507201047 | 57 | 228 | 4.0 | 9.0 | 0.00 | 0.01 | 0.01 | 69 | 1007.9 |
| 20260507200547 | 57 | 187 | 3.0 | 9.0 | 0.00 | 0.01 | 0.01 | 69 | 1008.1 |
| 20260507200046 | 58 | 236 | 3.0 | 9.0 | 0.00 | 0.01 | 0.01 | 70 | 1008.2 |
| 20260507195548 | 58 | 227 | 5.0 | 9.0 | 0.00 | 0.01 | 0.01 | 70 | 1008.3 |
| 20260507195046 | 58 | 242 | 3.0 | 9.0 | 0.00 | 0.01 | 0.01 | 70 | 1008.3 |
| 20260507194559 | 58 | 221 | 3.0 | 7.0 | 0.00 | 0.01 | 0.01 | 70 | 1008.2 |
| 20260507194046 | 58 | 254 | 3.0 | 7.0 | 0.00 | 0.01 | 0.01 | 70 | 1008.2 |
| 20260507193546 | 57 | 236 | 3.0 | 9.0 | 0.00 | 0.01 | 0.01 | 72 | 1008.3 |
| 20260507193046 | 57 | 243 | 4.0 | 9.0 | 0.00 | 0.01 | 0.01 | 72 | 1008.4 |
| 20260507192545 | 58 | 232 | 4.0 | 10.0 | 0.00 | 0.01 | 0.01 | 72 | 1008.5 |
| 20260507192045 | 58 | 283 | 5.0 | 10.0 | 0.00 | 0.01 | 0.01 | 70 | 1008.7 |
| 20260507191548 | 58 | 223 | 5.0 | 8.0 | 0.00 | 0.01 | 0.01 | 69 | 1008.6 |
| 20260507191044 | 58 | 246 | 3.0 | 9.0 | 0.00 | 0.01 | 0.01 | 70 | 1008.5 |
| 20260507190547 | 58 | 235 | 5.0 | 9.0 | 0.00 | 0.01 | 0.01 | 68 | 1008.6 |
| 20260507190053 | 58 | 232 | 3.0 | 9.0 | 0.00 | 0.01 | 0.01 | 69 | 1008.9 |
| 20260507185544 | 58 | 288 | 2.0 | 10.0 | 0.00 | 0.01 | 0.01 | 68 | 1008.9 |
| 20260507185044 | 58 | 227 | 5.0 | 10.0 | 0.00 | 0.01 | 0.01 | 68 | 1009.0 |
| 20260507184546 | 58 | 227 | 3.0 | 8.0 | 0.00 | 0.01 | 0.01 | 68 | 1009.1 |
| 20260507184044 | 58 | 245 | 3.0 | 7.0 | 0.00 | 0.01 | 0.01 | 68 | 1009.1 |
| 20260507183543 | 58 | 295 | 2.0 | 7.0 | 0.00 | 0.01 | 0.01 | 69 | 1009.0 |
| 20260507183044 | 58 | 257 | 3.0 | 7.0 | 0.00 | 0.01 | 0.01 | 69 | 1009.1 |
| 20260507182545 | 58 | 207 | 2.0 | 5.0 | 0.00 | 0.01 | 0.01 | 68 | 1008.8 |
| 20260507182044 | 58 | 219 | 2.0 | 7.0 | 0.00 | 0.01 | 0.01 | 68 | 1009.0 |
| 20260507181544 | 58 | 248 | 2.0 | 8.0 | 0.00 | 0.01 | 0.01 | 68 | 1008.8 |
| 20260507181042 | 58 | 212 | 3.0 | 9.0 | 0.00 | 0.01 | 0.01 | 69 | 1009.0 |
| 20260507180543 | 58 | 217 | 3.0 | 9.0 | 0.00 | 0.01 | 0.01 | 66 | 1009.0 |
| 20260507180043 | 58 | 132 | 0.0 | 5.0 | 0.00 | 0.01 | 0.01 | 66 | 1009.2 |
| 20260507175546 | 58 | 260 | 2.0 | 5.0 | 0.00 | 0.01 | 0.01 | 65 | 1009.4 |
| 20260507175042 | 59 | 261 | 1.0 | 6.0 | 0.00 | 0.01 | 0.01 | 64 | 1009.3 |
| 20260507174546 | 59 | 215 | 2.0 | 5.0 | 0.00 | 0.01 | 0.01 | 64 | 1009.3 |
| 20260507174041 | 59 | 211 | 1.0 | 4.0 | 0.00 | 0.01 | 0.01 | 64 | 1009.4 |
| 20260507173542 | 59 | 283 | 1.0 | 4.0 | 0.00 | 0.01 | 0.01 | 64 | 1009.4 |
| 20260507173112 | 59 | 155 | 1.0 | 3.0 | 0.00 | 0.01 | 0.01 | 64 | 1009.4 |
| 20260507172541 | 59 | 275 | 0.0 | 3.0 | 0.00 | 0.01 | 0.01 | 64 | 1009.6 |
| 20260507172041 | 59 | 22 | 0.0 | 8.0 | 0.00 | 0.01 | 0.01 | 64 | 1009.8 |
| 20260507171544 | 59 | 277 | 2.0 | 5.0 | 0.00 | 0.01 | 0.01 | 64 | 1009.8 |
| 20260507171040 | 59 | 317 | 2.0 | 5.0 | 0.00 | 0.01 | 0.01 | 64 | 1009.8 |
| 20260507170541 | 59 | 79 | 1.0 | 3.0 | 0.00 | 0.01 | 0.01 | 63 | 1009.7 |
| 20260507170040 | 59 | 179 | 1.0 | 3.0 | 0.00 | 0.01 | 0.01 | 63 | 1009.9 |
| 20260507165539 | 59 | 229 | 0.0 | 5.0 | 0.00 | 0.01 | 0.01 | 63 | 1010.0 |
| 20260507165040 | 58 | 50 | 3.0 | 7.0 | 0.00 | 0.01 | 0.01 | 64 | 1010.0 |
| 20260507164539 | 58 | 336 | 3.0 | 7.0 | 0.00 | 0.01 | 0.01 | 66 | 1010.0 |
| 20260507164041 | 58 | 5 | 1.0 | 4.0 | 0.00 | 0.01 | 0.01 | 67 | 1010.2 |
| 20260507163538 | 58 | 338 | 1.0 | 3.0 | 0.00 | 0.01 | 0.01 | 66 | 1010.3 |
| 20260507163040 | 58 | 311 | 0.0 | 3.0 | 0.00 | 0.01 | 0.01 | 66 | 1010.5 |
| 20260507162542 | 58 | 22 | 0.0 | 3.0 | 0.00 | 0.01 | 0.01 | 66 | 1010.6 |
| 20260507162039 | 58 | 345 | 1.0 | 5.0 | 0.00 | 0.01 | 0.01 | 66 | 1010.7 |
| 20260507161546 | 58 | 33 | 2.0 | 6.0 | 0.00 | 0.01 | 0.01 | 66 | 1010.8 |
| 20260507161038 | 58 | 123 | 1.0 | 6.0 | 0.00 | 0.01 | 0.01 | 66 | 1010.7 |
| 20260507160538 | 58 | 34 | 0.0 | 4.0 | 0.00 | 0.01 | 0.01 | 66 | 1010.6 |
| 20260507160041 | 58 | 348 | 1.0 | 6.0 | 0.00 | 0.01 | 0.01 | 66 | 1010.6 |
| 20260507155539 | 58 | 5 | 1.0 | 4.0 | 0.00 | 0.01 | 0.01 | 66 | 1010.5 |
| 20260507155037 | 58 | 37 | 1.0 | 4.0 | 0.00 | 0.01 | 0.01 | 64 | 1010.6 |
| 20260507154537 | 58 | 15 | 1.0 | 4.0 | 0.00 | 0.01 | 0.01 | 67 | 1010.7 |
| 20260507154037 | 58 | 330 | 1.0 | 5.0 | 0.00 | 0.01 | 0.01 | 67 | 1010.7 |
| 20260507153540 | 58 | 15 | 0.0 | 4.0 | 0.00 | 0.01 | 0.01 | 70 | 1010.8 |
| 20260507153036 | 58 | 341 | 1.0 | 3.0 | 0.00 | 0.01 | 0.01 | 67 | 1010.9 |
| 20260507152538 | 58 | 301 | 1.0 | 3.0 | 0.00 | 0.01 | 0.01 | 70 | 1011.1 |
| 20260507152036 | 57 | 294 | 0.0 | 4.0 | 0.00 | 0.01 | 0.01 | 69 | 1011.2 |
| 20260507151536 | 57 | 57 | 2.0 | 4.0 | 0.00 | 0.01 | 0.01 | 70 | 1011.2 |
| 20260507151034 | 57 | 338 | 1.0 | 4.0 | 0.00 | 0.01 | 0.01 | 69 | 1011.2 |
| 20260507150535 | 57 | 61 | 0.0 | 5.0 | 0.00 | 0.01 | 0.01 | 71 | 1011.1 |
| 20260507150040 | 57 | 20 | 1.0 | 5.0 | 0.00 | 0.01 | 0.01 | 69 | 1011.2 |
| 20260507145535 | 57 | 19 | 1.0 | 6.0 | 0.00 | 0.01 | 0.01 | 69 | 1011.2 |
| 20260507145034 | 57 | 15 | 2.0 | 6.0 | 0.00 | 0.01 | 0.01 | 69 | 1011.1 |
| 20260507144534 | 57 | 26 | 1.0 | 5.0 | 0.00 | 0.01 | 0.01 | 71 | 1011.1 |
| 20260507144034 | 56 | 19 | 2.0 | 5.0 | 0.00 | 0.01 | 0.01 | 69 | 1011.3 |
| 20260507143534 | 57 | 355 | 1.0 | 6.0 | 0.00 | 0.01 | 0.01 | 69 | 1011.3 |
| 20260507143040 | 57 | 14 | 3.0 | 8.0 | 0.00 | 0.01 | 0.01 | 68 | 1011.1 |
| 20260507142535 | 56 | 9 | 2.0 | 10.0 | 0.00 | 0.01 | 0.01 | 71 | 1011.1 |
| 20260507142032 | 56 | 28 | 4.0 | 10.0 | 0.00 | 0.01 | 0.01 | 71 | 1011.1 |
| 20260507141547 | 56 | 302 | 3.0 | 9.0 | 0.00 | 0.01 | 0.01 | 72 | 1011.1 |
| 20260507141032 | 56 | 341 | 3.0 | 9.0 | 0.00 | 0.01 | 0.01 | 71 | 1011.4 |
| 20260507140534 | 56 | 19 | 4.0 | 9.0 | 0.00 | 0.01 | 0.01 | 72 | 1011.4 |
| 20260507140032 | 56 | 38 | 1.0 | 10.0 | 0.00 | 0.01 | 0.01 | 73 | 1011.4 |
| 20260507135531 | 56 | 58 | 4.0 | 9.0 | 0.00 | 0.01 | 0.01 | 73 | 1011.6 |
| 20260507135035 | 56 | 65 | 2.0 | 9.0 | 0.00 | 0.01 | 0.01 | 74 | 1011.5 |
| 20260507134534 | 55 | 355 | 4.0 | 10.0 | 0.00 | 0.01 | 0.01 | 73 | 1011.5 |
| 20260507134030 | 55 | 355 | 3.0 | 10.0 | 0.00 | 0.01 | 0.01 | 74 | 1011.5 |
| 20260507133530 | 55 | 271 | 3.0 | 9.0 | 0.00 | 0.01 | 0.01 | 75 | 1011.5 |
| 20260507133045 | 55 | 15 | 2.0 | 9.0 | 0.00 | 0.01 | 0.01 | 75 | 1011.3 |
| 20260507132534 | 55 | 355 | 2.0 | 5.0 | 0.00 | 0.01 | 0.01 | 76 | 1011.4 |
| 20260507132028 | 54 | 28 | 2.0 | 5.0 | 0.00 | 0.01 | 0.01 | 77 | 1011.3 |
| 20260507131529 | 54 | 5 | 1.0 | 5.0 | 0.00 | 0.01 | 0.01 | 78 | 1011.3 |
| 20260507131028 | 54 | 5 | 2.0 | 9.0 | 0.00 | 0.01 | 0.01 | 77 | 1011.3 |
| 20260507130529 | 53 | 65 | 1.0 | 9.0 | 0.00 | 0.01 | 0.01 | 78 | 1011.5 |
| 20260507130029 | 53 | 42 | 1.0 | 6.0 | 0.00 | 0.01 | 0.01 | 79 | 1011.4 |
| 20260507125527 | 53 | 27 | 1.0 | 5.0 | 0.00 | 0.01 | 0.01 | 79 | 1011.5 |
| 20260507125026 | 53 | 9 | 2.0 | 5.0 | 0.00 | 0.01 | 0.01 | 79 | 1011.5 |
| 20260507124528 | 53 | 5 | 1.0 | 5.0 | 0.00 | 0.01 | 0.01 | 80 | 1011.3 |
| 20260507124025 | 53 | 22 | 2.0 | 5.0 | 0.00 | 0.01 | 0.01 | 80 | 1011.4 |
| 20260507123531 | 53 | 37 | 1.0 | 4.0 | 0.00 | 0.01 | 0.01 | 80 | 1011.3 |
| 20260507123035 | 53 | 41 | 1.0 | 4.0 | 0.00 | 0.01 | 0.01 | 80 | 1011.4 |
| 20260507122525 | 53 | 24 | 0.0 | 4.0 | 0.00 | 0.01 | 0.01 | 81 | 1011.3 |
| 20260507122025 | 53 | 333 | 1.0 | 4.0 | 0.00 | 0.01 | 0.01 | 81 | 1011.4 |
| 20260507121524 | 52 | 16 | 0.0 | 5.0 | 0.00 | 0.01 | 0.01 | 81 | 1011.4 |
| 20260507121023 | 52 | 13 | 1.0 | 5.0 | 0.00 | 0.01 | 0.01 | 81 | 1011.3 |
| 20260507120523 | 52 | 34 | 0.0 | 5.0 | 0.00 | 0.01 | 0.01 | 81 | 1011.1 |
| 20260507120024 | 52 | 16 | 0.0 | 5.0 | 0.00 | 0.01 | 0.01 | 81 | 1011.2 |
| 20260507115523 | 52 | 25 | 2.0 | 5.0 | 0.00 | 0.01 | 0.01 | 80 | 1011.2 |
| 20260507115022 | 52 | 31 | 2.0 | 4.0 | 0.00 | 0.01 | 0.01 | 81 | 1011.2 |
| 20260507114523 | 52 | 36 | 1.0 | 4.0 | 0.00 | 0.01 | 0.01 | 81 | 1011.1 |
| 20260507114023 | 52 | 355 | 0.0 | 4.0 | 0.00 | 0.01 | 0.01 | 81 | 1011.1 |
| 20260507113523 | 52 | 326 | 1.0 | 4.0 | 0.00 | 0.01 | 0.01 | 81 | 1011.0 |
| 20260507113023 | 52 | 17 | 1.0 | 4.0 | 0.00 | 0.01 | 0.01 | 81 | 1011.0 |
| 20260507112522 | 52 | 30 | 1.0 | 4.0 | 0.00 | 0.01 | 0.01 | 81 | 1010.9 |
| 20260507112024 | 52 | 28 | 1.0 | 2.0 | 0.00 | 0.01 | 0.01 | 81 | 1011.0 |
| 20260507111523 | 52 | 22 | 0.0 | 4.0 | 0.00 | 0.01 | 0.01 | 81 | 1011.1 |
| 20260507111021 | 52 | 20 | 1.0 | 8.0 | 0.00 | 0.01 | 0.01 | 80 | 1011.0 |
| 20260507110521 | 52 | 28 | 2.0 | 8.0 | 0.00 | 0.01 | 0.01 | 80 | 1011.1 |
| 20260507110024 | 52 | 10 | 0.0 | 3.0 | 0.00 | 0.01 | 0.01 | 81 | 1011.1 |
| 20260507105521 | 52 | 349 | 0.0 | 4.0 | 0.00 | 0.01 | 0.01 | 81 | 1011.1 |
| 20260507105019 | 52 | 31 | 2.0 | 5.0 | 0.00 | 0.01 | 0.01 | 81 | 1011.0 |
| 20260507104518 | 52 | 49 | 1.0 | 5.0 | 0.00 | 0.01 | 0.01 | 81 | 1010.7 |
| 20260507104018 | 52 | 37 | 1.0 | 5.0 | 0.00 | 0.01 | 0.01 | 82 | 1010.7 |
| 20260507103516 | 52 | 19 | 1.0 | 5.0 | 0.00 | 0.01 | 0.01 | 81 | 1010.7 |
| 20260507103016 | 52 | 15 | 1.0 | 5.0 | 0.00 | 0.01 | 0.01 | 82 | 1010.5 |
| 20260507102516 | 52 | 30 | 1.0 | 6.0 | 0.00 | 0.01 | 0.01 | 82 | 1010.4 |
| 20260507102016 | 52 | 24 | 2.0 | 6.0 | 0.00 | 0.01 | 0.01 | 82 | 1010.4 |
| 20260507101517 | 52 | 17 | 1.0 | 8.0 | 0.00 | 0.01 | 0.01 | 82 | 1010.4 |
| 20260507101015 | 52 | 335 | 3.0 | 8.0 | 0.00 | 0.01 | 0.01 | 82 | 1010.4 |
| 20260507100513 | 52 | 355 | 2.0 | 6.0 | 0.00 | 0.01 | 0.01 | 82 | 1010.3 |
| 20260507100020 | 52 | 343 | 1.0 | 6.0 | 0.00 | 0.01 | 0.01 | 82 | 1010.2 |
| 20260507095513 | 52 | 26 | 2.0 | 5.0 | 0.00 | 0.01 | 0.01 | 82 | 1010.1 |
| 20260507095012 | 52 | 350 | 2.0 | 9.0 | 0.00 | 0.01 | 0.01 | 82 | 1010.1 |
| 20260507094511 | 52 | 26 | 2.0 | 9.0 | 0.00 | 0.01 | 0.01 | 82 | 1009.9 |
| 20260507094018 | 52 | 29 | 3.0 | 8.0 | 0.00 | 0.01 | 0.01 | 82 | 1009.8 |
| 20260507093508 | 52 | 22 | 4.0 | 7.0 | 0.00 | 0.01 | 0.01 | 82 | 1009.8 |
| 20260507093009 | 52 | 13 | 2.0 | 10.0 | 0.00 | 0.01 | 0.01 | 82 | 1009.8 |
| 20260507092508 | 52 | 46 | 2.0 | 10.0 | 0.00 | 0.01 | 0.01 | 82 | 1009.7 |
| 20260507092008 | 52 | 36 | 1.0 | 10.0 | 0.00 | 0.01 | 0.01 | 83 | 1009.7 |
| 20260507091508 | 52 | 23 | 1.0 | 10.0 | 0.00 | 0.01 | 0.01 | 83 | 1009.7 |
| 20260507091005 | 52 | 14 | 2.0 | 9.0 | 0.00 | 0.01 | 0.01 | 83 | 1009.8 |
| 20260507090504 | 52 | 30 | 2.0 | 6.0 | 0.00 | 0.01 | 0.01 | 84 | 1009.5 |
| 20260507090009 | 52 | 18 | 3.0 | 11.0 | 0.00 | 0.01 | 0.01 | 84 | 1009.5 |
| 20260507085503 | 52 | 24 | 2.0 | 11.0 | 0.00 | 0.01 | 0.01 | 84 | 1009.7 |
| 20260507085002 | 52 | 48 | 2.0 | 10.0 | 0.00 | 0.01 | 0.01 | 85 | 1009.8 |
| 20260507084502 | 52 | 17 | 4.0 | 11.0 | 0.00 | 0.01 | 0.01 | 85 | 1009.6 |
| 20260507084002 | 52 | 340 | 3.0 | 12.0 | 0.00 | 0.01 | 0.01 | 85 | 1009.6 |
| 20260507083502 | 52 | 25 | 4.0 | 12.0 | 0.00 | 0.01 | 0.01 | 85 | 1009.4 |
| 20260507083059 | 53 | 41 | 2.0 | 16.0 | 0.00 | 0.01 | 0.01 | 85 | 1009.3 |
| 20260507082559 | 53 | 33 | 0.0 | 16.0 | 0.00 | 0.01 | 0.01 | 85 | 1009.3 |
| 20260507082059 | 53 | 13 | 2.0 | 13.0 | 0.00 | 0.01 | 0.01 | 85 | 1009.1 |
| 20260507081557 | 53 | 11 | 2.0 | 13.0 | 0.00 | 0.01 | 0.01 | 85 | 1009.0 |
| 20260507081059 | 53 | 34 | 3.0 | 13.0 | 0.00 | 0.01 | 0.01 | 86 | 1008.9 |
| 20260507080556 | 54 | 16 | 0.0 | 8.0 | 0.00 | 0.01 | 0.01 | 85 | 1009.0 |
| 20260507080054 | 54 | 41 | 0.0 | 10.0 | 0.00 | 0.01 | 0.01 | 86 | 1009.1 |
| 20260507075554 | 54 | 348 | 1.0 | 14.0 | 0.00 | 0.01 | 0.01 | 87 | 1009.0 |
| 20260507075051 | 55 | 28 | 2.0 | 14.0 | 0.00 | 0.01 | 0.01 | 88 | 1008.7 |
| 20260507074552 | 55 | 28 | 2.0 | 14.0 | 0.00 | 0.01 | 0.01 | 87 | 1008.7 |
| 20260507074049 | 55 | 15 | 4.0 | 15.0 | 0.01 | 0.01 | 0.01 | 86 | 1008.9 |
| 20260507073548 | 55 | 34 | 4.0 | 15.0 | 0.01 | 0.01 | 0.01 | 86 | 1008.3 |
| 20260507073052 | 56 | 342 | 4.0 | 14.0 | 0.01 | 0.01 | 0.01 | 87 | 1007.9 |
| 20260507072545 | 57 | 347 | 6.0 | 12.0 | 0.01 | 0.01 | 0.01 | 86 | 1008.0 |
| 20260507072043 | 58 | 15 | 3.0 | 12.0 | 0.01 | 0.01 | 0.01 | 87 | 1008.2 |
| 20260507071543 | 59 | 49 | 4.0 | 11.0 | 0.01 | 0.01 | 0.01 | 88 | 1008.3 |
| 20260507071041 | 60 | 5 | 2.0 | 10.0 | 0.01 | 0.01 | 0.01 | 88 | 1008.4 |
| 20260507070539 | 60 | 349 | 1.0 | 6.0 | 0.01 | 0.01 | 0.01 | 88 | 1008.4 |
| 20260507070048 | 61 | 30 | 0.0 | 9.0 | 0.01 | 0.01 | 0.01 | 89 | 1008.2 |
| 20260507065541 | 61 | 20 | 3.0 | 11.0 | 0.01 | 0.01 | 0.01 | 89 | 1007.9 |
| 20260507065037 | 62 | 83 | 2.0 | 12.0 | 0.01 | 0.01 | 0.01 | 88 | 1007.8 |
| 20260507064546 | 62 | 15 | 0.0 | 12.0 | 0.01 | 0.01 | 0.01 | 88 | 1007.7 |
| 20260507064041 | 62 | 53 | 0.0 | 0.0 | 0.00 | 0.00 | 0.00 | 88 | 1008.2 |
| 20260507063540 | 63 | 242 | 0.0 | 1.0 | 0.00 | 0.00 | 0.00 | 89 | 1008.1 |
| 20260507063138 | 63 | 36 | 0.0 | 1.0 | 0.00 | 0.00 | 0.00 | 89 | 1007.8 |
| 20260507062536 | 63 | 285 | 0.0 | 0.0 | 0.00 | 0.00 | 0.00 | 89 | 1007.7 |
| 20260507062037 | 63 | 5 | 0.0 | 0.0 | 0.00 | 0.00 | 0.00 | 89 | 1007.8 |
| 20260507061538 | 63 | 305 | 0.0 | 0.0 | 0.00 | 0.00 | 0.00 | 89 | 1007.9 |
| 20260507061035 | 63 | 272 | 0.0 | 5.0 | 0.00 | 0.00 | 0.00 | 88 | 1007.8 |
| 20260507060535 | 63 | 265 | 0.0 | 5.0 | 0.00 | 0.00 | 0.00 | 87 | 1007.7 |
| 20260507060035 | 63 | 248 | 0.0 | 4.0 | 0.00 | 0.00 | 0.00 | 87 | 1007.9 |
| 20260507055534 | 63 | 253 | 1.0 | 5.0 | 0.00 | 0.00 | 0.00 | 86 | 1008.0 |
| 20260507055034 | 64 | 280 | 1.0 | 5.0 | 0.00 | 0.00 | 0.00 | 85 | 1007.9 |
| 20260507054533 | 64 | 286 | 3.0 | 8.0 | 0.00 | 0.00 | 0.00 | 84 | 1008.2 |
| 20260507054034 | 64 | 222 | 0.0 | 8.0 | 0.00 | 0.00 | 0.00 | 84 | 1008.2 |
| 20260507053531 | 64 | 245 | 2.0 | 7.0 | 0.00 | 0.00 | 0.00 | 85 | 1008.0 |
| 20260507053030 | 64 | 263 | 0.0 | 9.0 | 0.00 | 0.00 | 0.00 | 85 | 1007.9 |
| 20260507052528 | 64 | 287 | 2.0 | 9.0 | 0.00 | 0.00 | 0.00 | 85 | 1007.7 |